Wheeler AAF, HI

10:13 AM HST on July 27, 2017 (GMT -1000)
Wheeler Army Air Field

Weather History for PHHI - July, 2013

Change the Weather History Date:

Sunday, July 14, 2013

  Actual Average Record
Temperature  
Mean Temperature 72 °F -  
Max Temperature 82 °F 79 °F 85 °F (2016)
Min Temperature 63 °F 67 °F 63 °F (2013)
Cooling Degree Days 8    
Growing Degree Days 22 (Base 50)    
Moisture  
Dew Point 62 °F    
Average Humidity 67    
Maximum Humidity 89    
Minimum Humidity 47    
Precipitation  
Precipitation 0.00 in - - ()
Sea Level Pressure  
Sea Level Pressure 29.95 in    
Wind  
Wind Speed 6 mph (ENE)    
Max Wind Speed 15 mph    
Max Gust Speed 23 mph    
Visibility 10 miles    
Events      
Averages and records for this station are not official NWS values.
T = Trace of Precipitation, MM = Missing Value Source: NWS Daily Summary

Daily Weather History Graph

Daily Weather History Graph

Search for Another Location

Airport or City:

Trip Planner

Search our weather history database for the weather conditions in past years. The results will help you decide how hot, cold, wet, or windy it might be!

Date:

Astronomy

Jul. 14, 2013 Rise Set
Actual Time 5:58 AM HST 7:17 PM HST
Civil Twilight 5:33 AM HST 7:42 PM HST
Nautical Twilight 5:04 AM HST 8:11 PM HST
Astronomical Twilight 4:34 AM HST 8:41 PM HST
Moon 11:33 AM HST (7/14) 11:33 PM HST (7/14)
Length of Visible Light 14h 08m
Length of Day
13h 19m
Waxing Crescent, 37% of the Moon is Illuminated
Jul 14
Waxing Crescent
Jul 15
First Quarter
Jul 22
Full
Jul 29
Last Quarter
Aug 6
New

Hourly Weather History & Observations

Time (HST) Temp. Heat Index Dew Point Humidity Pressure Visibility Wind Dir Wind Speed Gust Speed Precip Events Conditions
12:55 AM 71.2 °F - 63.5 °F 76% 29.96 in 10.0 mi ENE 5.8 mph - N/A   Mostly Cloudy
1:18 AM 71.6 °F - 64.4 °F 78% 29.96 in 10.0 mi East 8.1 mph - N/A   Light Drizzle
1:34 AM 71.6 °F - 64.4 °F 78% 29.94 in 10.0 mi NE 4.6 mph - N/A   Mostly Cloudy
1:55 AM 71.1 °F - 63.9 °F 78% 29.94 in 10.0 mi ENE 3.5 mph - 0.00 in   Scattered Clouds
2:55 AM 71.2 °F - 62.8 °F 75% 29.93 in 10.0 mi NE 8.1 mph - N/A   Partly Cloudy
3:55 AM 68.4 °F - 60.6 °F 76% 29.92 in 10.0 mi WNW 4.6 mph - N/A   Clear
4:55 AM 65.8 °F - 61.3 °F 85% 29.93 in 10.0 mi Calm Calm - N/A   Clear
5:55 AM 63.7 °F - 60.4 °F 89% 29.94 in 10.0 mi NW 4.6 mph - N/A   Clear
6:55 AM 66.2 °F - 62.4 °F 88% 29.95 in 10.0 mi Calm Calm - N/A   Clear
7:55 AM 74.3 °F - 64.0 °F 70% 29.96 in 10.0 mi Calm Calm - N/A   Clear
8:55 AM 76.8 °F - 63.5 °F 63% 29.97 in 10.0 mi East 9.2 mph - N/A   Clear
9:55 AM 79.2 °F - 62.4 °F 56% 29.97 in 10.0 mi East 9.2 mph - N/A   Clear
10:55 AM 80.2 °F 81.2 °F 61.3 °F 52% 29.97 in 10.0 mi ESE 9.2 mph - N/A   Scattered Clouds
11:55 AM 81.3 °F 82.1 °F 61.0 °F 50% 29.96 in 10.0 mi ESE 3.5 mph 19.6 mph N/A   Clear
12:55 PM 81.1 °F 82.1 °F 62.2 °F 52% 29.95 in 10.0 mi East 9.2 mph 19.6 mph N/A   Mostly Cloudy
1:55 PM 81.9 °F 82.9 °F 62.6 °F 52% 29.94 in 10.0 mi East 12.7 mph - N/A   Partly Cloudy
2:55 PM 82.4 °F 83.2 °F 62.2 °F 50% 29.91 in 10.0 mi ENE 15.0 mph - N/A   Partly Cloudy
3:55 PM 82.2 °F 82.6 °F 60.1 °F 47% 29.91 in 10.0 mi East 15.0 mph 21.9 mph N/A   Clear
4:55 PM 79.7 °F - 60.4 °F 52% 29.91 in 10.0 mi East 15.0 mph 23.0 mph N/A   Scattered Clouds
5:55 PM 78.8 °F - 60.4 °F 53% 29.92 in 10.0 mi ENE 13.8 mph - N/A   Clear
6:55 PM 75.9 °F - 61.3 °F 60% 29.93 in 10.0 mi ENE 12.7 mph - N/A   Clear
7:55 PM 73.4 °F - 61.5 °F 66% 29.96 in 10.0 mi Variable 3.5 mph - N/A   Clear
8:55 PM 72.5 °F - 61.9 °F 69% 29.97 in 10.0 mi Calm Calm - N/A   Clear
9:55 PM 71.4 °F - 61.7 °F 71% 29.99 in 10.0 mi Variable 4.6 mph - N/A   Clear
10:55 PM 68.0 °F - 60.3 °F 76% 29.99 in 10.0 mi Calm Calm - N/A   Clear
11:55 PM 66.9 °F - 61.3 °F 82% 29.98 in 10.0 mi West 4.6 mph - N/A   Clear